NOAA NWS Hourly Roundups by Site

Regional Weather Roundup for Topeka, KS

To Select Another Site Choose from List

Select Site:  

000
ASUS43 KTOP 242008
RWRKS

WEATHER ROUNDUP FOR KANSAS
NATIONAL WEATHER SERVICE GOODLAND KS
200 PM CST FRI JAN 24 2020

NOTE:  "FAIR" INDICATES FEW OR NO CLOUDS BELOW 12,000 FEET WITH NO
SIGNIFICANT WEATHER AND/OR OBSTRUCTIONS TO VISIBILITY.

KSZ001>006-013>018-027>032-041>047-242100-
NORTHWEST KANSAS

CITY           SKY/WX    TMP DP  RH WIND       PRES   REMARKS
GOODLAND       SUNNY     51  23  33 NW10G18   29.97F
HAYS           SUNNY     40  27  59 N10       30.05F WCI  33
HILL CITY      SUNNY     43  27  53 N9        30.04F
RUSSELL        MOSUNNY   36  27  69 N9        30.05F
$$

KSZ061>065-074>080-084>089-242100-
SOUTHWEST KANSAS

CITY           SKY/WX    TMP DP  RH WIND       PRES   REMARKS
DODGE CITY     MOSUNNY   47  26  44 NW6       30.04F
ELKHART        SUNNY     57  26  30 NW5       30.01F
GARDEN CITY    SUNNY     48  23  37 W6        30.02F
GREAT BEND     SUNNY     40  28  62 NW8       30.06F
LIBERAL        SUNNY     55  18  23 SW12      30.03F
PRATT          SUNNY     45  25  44 N12       30.05F
$$

KSZ066>073-081>083-090>101-242100-
SOUTHEAST KANSAS

CITY           SKY/WX    TMP DP  RH WIND       PRES   REMARKS
CHANUTE        CLOUDY    35  29  78 NW17G25   30.05F WCI  25
COFFEYVILLE    CLOUDY    37  30  75 NW17      30.06F WCI  27
HUTCHINSON     CLOUDY    36  27  69 NW12      30.07F WCI  28
MEDICINE LODGE   N/A     48  29  47 NW14      30.04F
NEWTON         CLOUDY    33  29  85 NW15      30.07F WCI  23
PARSONS        CLOUDY    37  30  75 NW13G23   30.06F WCI  29
WICHITA INTL   CLOUDY    37  27  67 NW14      30.08F WCI  28
WICHITA JABRA  CLOUDY    35  29  78 NW12      30.07F WCI  27
WICHITA MCCONL CLOUDY    35  28  73 N10       30.07  WCI  28
WINFIELD       CLOUDY    37  29  72 NW13      30.10F WCI  29
$$

KSZ007>012-019>026-033>040-048>060-102>105-242100-
NORTHEAST KANSAS

CITY           SKY/WX    TMP DP  RH WIND       PRES   REMARKS
CONCORDIA      CLOUDY    32  27  81 NW13      30.07F WCI  22
EMPORIA        CLOUDY    32  29  88 NW14      30.05F WCI  22
LAWRENCE       CLOUDY    32  28  85 NW16G26   30.02S FOG     WCI  21
MANHATTAN      CLOUDY    33  27  78 NW7       30.07F
MARYSVILLE     CLOUDY    32  28  86 NW13      30.05F WCI  22
OLATHE IND     CLOUDY    31  29  92 NW15G24   30.00S FOG     WCI  20
OLATHE EXE     CLOUDY    30  30 100 NW12G25   29.98S FOG     WCI  20
SALINA         CLOUDY    35  29  78 NW15      30.08F WCI  25
TOPEKA BILLARD CLOUDY    33  27  78 NW15G23   30.04S WCI  23
TOPEKA FORBES  CLOUDY    33  27  78 NW18G26   30.03S WCI  22
$$


 

View Past Reports for Topeka, KS.

Products Courtesy of NOAA-NWS
NWS Information Parsing Script by Ken True at Saratoga Weather - Script by SE Lincoln Weather.